Regional Weather Roundup
Issued by NWS

Home | Current Version | Previous Version | Text Only | Print | Product List | Glossary Off
Versions: 1 2 3 4 5 6 7 8 9 10 11 12 13 14 15 16 17 18 19 20 21 22 23 24 25 26 27 28

000
ASUS45 KBOI 181010
RWRID

IDAHO REGIONAL WEATHER ROUNDUP
NATIONAL WEATHER SERVICE BOISE ID
300 AM MST SAT NOV 18 2017

NOTE: "FAIR" INDICATES FEW OR NO CLOUDS BELOW 12000 FEET
WITH NO SIGNIFICANT WEATHER AND/OR OBSTRUCTIONS TO VISIBILITY

IDZ012-014-181100-
SOUTHWEST IDAHO


CITY           SKY/WX    TMP DP  RH WIND       PRES   REMARKS
BOISE          CLEAR     30  24  78 SE8       30.39R WCI  22
CALDWELL       CLEAR     27  24  89 E3        30.41R
MOUNTAIN HOME  CLEAR     24  24  99 CALM      30.39R
$$

IDZ016-017-181100-
SOUTHCENTRAL IDAHO


CITY           SKY/WX    TMP DP  RH WIND       PRES   REMARKS
BURLEY         CLEAR     29  21  72 SW9       30.36R WCI  20
JEROME         CLEAR     28  22  78 S7        30.37R WCI  21
TWIN FALLS     PTCLDY    26  20  77 S13       30.36R WCI  15
$$

IDZ019>023-181100-
SOUTHEAST IDAHO


CITY           SKY/WX    TMP DP  RH WIND       PRES   REMARKS
IDAHO FALLS    CLOUDY    26  23  88 S14       30.33R WCI  14
POCATELLO      CLEAR     27  22  81 SW12      30.36R WCI  17
REXBURG        CLOUDY    25  21  85 S12       30.31R WCI  14
$$

IDZ006-010-011-018-031-032-181100-
CENTRAL IDAHO MOUNTAINS


CITY           SKY/WX    TMP DP  RH WIND       PRES   REMARKS
MCCALL         CLOUDY    20  17  88 CALM      30.30R
HAILEY         CLEAR     21  14  73 NW12      30.33R WCI   9
STANLEY          N/A      6   2  83 CALM      30.32R
SALMON         CLOUDY    29  17  61 S7        30.33R WCI  22
CHALLIS        PTCLDY    23  14  68 E3        30.32R
$$

IDZ002-004-006-007-026-181100-
NORTHERN IDAHO


CITY           SKY/WX    TMP DP  RH WIND       PRES   REMARKS
LEWISTON       CLOUDY    36  30  79 CALM      30.35R
LOWELL           N/A     37  35  92 CALM      30.40R
COEUR D`ALENE  PTCLDY    31  28  89 CALM      30.29R
MULLAN PASS    CLOUDY    22  19  89 W8G23     30.16R WCI  12
$$




USA.gov is the U.S. government's official web portal to all federal, state and local government web resources and services.